Home > Weather > Bucharest > Past weeks

Flag for Romania Past Weather in Bucharest, Romania — Yesterday and Last 2 Weeks

Now
73 °F

Clear.


Feels Like: 75 °F
Forecast: 70 / 90 °F
Wind: 5 mph from Northeast

Location: Bucharest / Imh

Current Time: Jul 1, 2016 at 2:09:23 AM

Latest Report: Jul 1, 2016 at 1:30 AM


Visibility: 10 mi

Pressure: 30.01 "Hg

Humidity: 74%

Dew Point: 64 °F

Location of BucharestLocation

Past Weather in Bucharest — Graph

°F

Bucharest Temperature Yesterday

Maximum temperature yesterday: 88 °F (at 4:30 PM)
Minimum temperature yesterday: 66 °F (at 3:30 AM)
Average temperature yesterday: 78 °F

High & Low Weather Summary for the Past Weeks

 TemperatureHumidityPressure
High95 °F (Jun 17, 3:30 PM)100% (Jun 17, 6:00 AM)30.18 "Hg (Jun 17, 6:00 AM)
Low63 °F (Jun 16, 5:00 AM)32% (Jun 26, 5:00 PM)29.74 "Hg (Jun 16, 1:00 AM)
Average79 °F68%29.99 "Hg
* Reported Jun 16 1:00 AM — Jul 1 1:00 AM, Bucharest, Weather by CustomWeather, © 2016

Note: Actual official high and low records may vary slightly from our data, if they occured in-between our weather recording intervals... More about our weather records

Advertising

Bucharest Weather History for the Previous 24 Hours

Scroll right to see more
 ConditionsComfort  
Time TempWeatherWind HumidityBarometerVisibility
1:00 AM
Fri, Jul 1
73 °FClear.3 mph74%29.98 "Hg10 mi
12:30 AM73 °FClear.3 mph78%30.01 "Hg10 mi
12:00 AM77 °FClear.6 mph65%29.98 "Hg10 mi
11:30 PM
Thu, Jun 30
77 °FPassing clouds.9 mph65%29.98 "HgN/A
11:00 PM79 °FClear.No wind65%29.98 "Hg10 mi
10:30 PM81 °FClear.2 mph62%29.98 "Hg10 mi
10:00 PM81 °FSunny.No wind62%29.98 "Hg10 mi
9:30 PM82 °FSunny.2 mph58%29.95 "Hg10 mi
9:00 PM84 °FPassing clouds.3 mph51%29.95 "HgN/A
8:30 PM86 °FSunny.3 mph46%29.95 "Hg10 mi
8:00 PM88 °FPassing clouds.6 mph43%29.95 "HgN/A
7:30 PM88 °FPassing clouds.6 mph43%29.95 "HgN/A
7:00 PM88 °FPassing clouds.5 mph43%29.95 "HgN/A
6:30 PM88 °FPassing clouds.5 mph43%29.95 "HgN/A
6:00 PM88 °FPassing clouds.7 mph46%29.95 "HgN/A
5:30 PM88 °FPassing clouds.6 mph43%29.95 "HgN/A
5:00 PM88 °FPassing clouds.6 mph46%29.95 "HgN/A
4:30 PM88 °FPassing clouds.6 mph46%29.95 "HgN/A
4:00 PM86 °FPassing clouds.7 mph49%29.95 "HgN/A
3:30 PM86 °FPassing clouds.5 mph49%29.95 "HgN/A
3:00 PM86 °FSunny.3 mph46%29.98 "Hg10 mi
2:30 PM86 °FSunny.5 mph52%29.98 "Hg10 mi
2:00 PM86 °FPassing clouds.6 mph49%29.98 "HgN/A
1:30 PM86 °FPassing clouds.7 mph52%29.98 "HgN/A
1:00 PM84 °FPassing clouds.6 mph48%29.98 "HgN/A
12:30 PM84 °FPassing clouds.6 mph45%30.01 "HgN/A
12:00 PM84 °FPartly sunny.3 mph48%30.01 "HgN/A
11:30 AM82 °FPartly sunny.2 mph48%30.01 "HgN/A
11:00 AM82 °FPassing clouds.3 mph58%30.01 "HgN/A
10:30 AM82 °FSunny.2 mph58%30.01 "Hg10 mi
10:00 AM81 °FSunny.1 mph58%30.01 "Hg10 mi
9:30 AM79 °FSunny.1 mph61%30.01 "Hg10 mi
9:00 AM75 °FPassing clouds.3 mph83%30.01 "HgN/A
8:30 AM73 °FSunny.2 mph89%29.98 "Hg10 mi
8:00 AM72 °FSunny.3 mph94%29.98 "Hg10 mi
7:30 AM72 °FSunny.1 mph94%29.98 "Hg10 mi
7:00 AM70 °FSunny.1 mph94%29.98 "Hg10 mi
6:30 AM68 °FFog.No wind94%29.98 "Hg4 mi
6:00 AM68 °FFog.2 mph94%29.95 "Hg3 mi
5:30 AM68 °FFog.1 mph94%29.95 "Hg2 mi
5:00 AM68 °FFog.2 mph94%29.95 "Hg2 mi
4:30 AM68 °FFog.1 mph94%29.95 "Hg3 mi
4:00 AM66 °FFog.1 mph100%29.95 "HgN/A
3:30 AM66 °FMild.No wind100%29.95 "HgN/A
3:00 AM68 °FFog.1 mph94%29.95 "Hg3 mi
2:30 AM68 °FFog.No wind94%29.95 "Hg5 mi
2:00 AM70 °FFog.No wind94%29.95 "Hg4 mi
Weather by CustomWeather, © 2016

See weather overviewHow to use our weather pages